This is the latest recevied weather packets stored in our database for station/object K4DNM. If no packets are shown the sender has not sent any weather packets the latest 10 day(s).
| Time | Temp. | Humidity | Pressure | Rain* | Wind** | Luminosity | Snow |
|---|---|---|---|---|---|---|---|
| 1778207268 | 11.67° C | 99% | 1011.1 hPa | 0 mm | - | 0 W/m² | - |
| 1778206909 | 11.67° C | 99% | 1011.2 hPa | 0 mm | - | 0 W/m² | - |
| 1778206669 | 11.67° C | 99% | 1011.3 hPa | 0 mm | - | 0 W/m² | - |
| 1778206309 | 11.67° C | 99% | 1011.3 hPa | 0 mm | - | 0 W/m² | - |
| 1778206008 | 11.67° C | 99% | 1011.1 hPa | 0 mm | - | 0 W/m² | - |
| 1778205708 | 11.67° C | 99% | 1011.1 hPa | 0 mm | - | 0 W/m² | - |
| 1778205469 | 11.67° C | 99% | 1011 hPa | 0.25 mm | - | 0 W/m² | - |
| 1778205109 | 11.67° C | 99% | 1011 hPa | 1.27 mm | - | 0 W/m² | - |
| 1778204808 | 11.67° C | 99% | 1010.8 hPa | 2.29 mm | - | 0 W/m² | - |
| 1778204509 | 11.67° C | 99% | 1010.6 hPa | 2.54 mm | - | 0 W/m² | - |
| 1778204208 | 11.67° C | 98% | 1010.4 hPa | 3.3 mm | - | 0 W/m² | - |
| 1778203909 | 11.67° C | 98% | 1010.5 hPa | 5.59 mm | - | 0 W/m² | - |
| 1778203594 | 11.67° C | 98% | 1010.5 hPa | 5.59 mm | - | 0 W/m² | - |
| 1778203279 | 11.67° C | 98% | 1010.4 hPa | 5.59 mm | - | 0 W/m² | - |
| 1778203041 | 11.67° C | 98% | 1010.2 hPa | 5.59 mm | - | 0 W/m² | - |
| 1778202742 | 11.67° C | 98% | 1010.3 hPa | 5.59 mm | - | 0 W/m² | - |
| 1778202382 | 11.67° C | 97% | 1010.5 hPa | 5.59 mm | - | 0 W/m² | - |
| 1778202142 | 11.67° C | 97% | 1010.4 hPa | 5.59 mm | - | 0 W/m² | - |
| 1778201782 | 11.67° C | 97% | 1010.6 hPa | 5.33 mm | - | 0 W/m² | - |
| 1778201540 | 11.67° C | 97% | 1010.8 hPa | 4.32 mm | - | 0 W/m² | - |
| 1778201179 | 11.67° C | 96% | 1010.8 hPa | 3.3 mm | - | 0 W/m² | - |
| 1778200880 | 11.67° C | 96% | 1010.8 hPa | 2.79 mm | - | 0 W/m² | - |
| 1778200580 | 12.22° C | 95% | 1010.2 hPa | 2.03 mm | - | 0 W/m² | - |
| 1778200264 | 12.22° C | 95% | 1010 hPa | 0 mm | - | 0 W/m² | - |
| 1778199965 | 12.22° C | 94% | 1009.6 hPa | 0 mm | - | 0 W/m² | - |
* Rain latest hour (hover to see other rain measurements)
** Current wind speed in m/s (hover to see current wind gust speed)